Simultaneous Nadir Overpasses (SNOs) Predictions

Prediction of SNOs between GOES-14 and NOAA-20 Satellite Orbit:

Table of predicted SNOs for the next 14.0 days since TLE Epoch: 9/29/2025
Index Date Time (GOES-14) GOES-14 Lat,Lon NOAA-20 Lat,Lon Distance(km) Time Diff (sec)
1 09/30/2025 08:51:19 -0.80,-108.42 -0.13,-111.36 336.38 80
2 10/01/2025 08:29:55 -0.85,-108.42 -1.22,-106.84 179.48 80
3 10/02/2025 20:54:28 0.78,-108.39 -0.04,-112.12 424.55 80
4 10/03/2025 20:33:02 0.82,-108.40 0.99,-107.59 92.06 80
5 10/06/2025 08:36:02 -0.79,-108.43 -0.79,-108.30 14.82 80
6 10/08/2025 20:41:50 0.75,-108.40 0.60,-109.05 73.70 80
7 10/09/2025 20:20:25 0.80,-108.40 1.64,-104.52 442.42 80
8 10/11/2025 08:44:50 -0.71,-108.44 -0.41,-109.76 151.26 80
9 10/12/2025 08:23:24 -0.76,-108.43 -1.45,-105.23 363.88 80
